User: anonymous   Login
Location: Unspecified
(0.0000°N, 0.0000°E)
Time: 18:04:16
(UTC+00:00)
Language:

STARLINK-36430 - Orbit

View from above orbital plane
View from above orbital plane
View from above satellite
View from above satellite

Ground track
Ground track

The orbit is defined by the following mean orbital elements,

1 67326U          26145.32240234 +.00000000 +00000-0 +70171-3 0 00004
2 67326  42.9961 252.0700 0000551 293.2522  66.8272 15.27594563    07
Epoch (UTC): 25 May 2026 07:44:15
Eccentricity: 0.0000551
inclination: 42.9961°
perigee height: 483 km
apogee height: 483 km
right ascension of ascending node: 252.0700°
argument of perigee: 293.2522°
revolutions per day: 15.27594563
mean anomaly at epoch: 66.8272°

The dashed part of the orbit path shows where the satellite is in the earth's shadow,  

DLR